Location: ???? ?????????
(31.1304°N, 31.7111°E)
Time: 15:41:58
(UTC+00:00)

Tiros 1 despin weight - All Passes

Search period start: 27 February 2021 00:00
Search period end: 09 March 2021 00:00
Orbit: 593 x 642 km, 48.2° (Epoch: 26 February)

Date Brightness Start Highest point End Pass type
(mag) Time Alt. Az. Time Alt. Az. Time Alt. Az.
27 Feb - 00:57:32 10° NNW 00:59:06 11° NNW 01:00:40 10° N visible
27 Feb - 02:42:24 10° N 02:42:29 10° N 02:42:33 10° N visible
27 Feb - 04:21:37 10° NNW 04:25:26 24° NNE 04:29:14 10° E daylight
27 Feb - 06:02:39 10° NW 06:07:17 64° SW 06:11:53 10° SE daylight
27 Feb - 20:09:36 10° SE 20:10:07 10° SE 20:10:38 10° ESE night (unlit)
27 Feb - 21:46:31 10° SW 21:51:04 85° SE 21:55:42 10° NE night (unlit)
27 Feb - 23:29:40 10° WNW 23:33:05 20° NNW 23:36:32 10° NNE night (unlit)
28 Feb - 02:57:22 10° N 02:59:30 13° NNE 03:01:39 10° NE visible
28 Feb - 04:37:36 10° NW 04:42:03 41° NE 04:46:29 10° ESE daylight
28 Feb - 06:19:26 10° WNW 06:23:29 29° SW 06:27:30 10° SSE daylight
28 Feb - 20:22:33 10° S 20:26:10 24° SE 20:29:50 10° ENE night (unlit)
28 Feb - 22:03:05 10° WSW 22:07:28 47° NW 22:11:57 10° NE night (unlit)
28 Feb - 23:47:36 10° NW 23:49:57 14° NNW 23:52:18 10° NNE night (unlit)
01 Mar - 03:13:06 10° NNW 03:16:24 18° NNE 03:19:41 10° ENE visible
01 Mar - 04:53:48 10° NW 04:58:31 82° NE 05:03:11 10° SE daylight
01 Mar - 06:37:23 10° W 06:39:34 13° SW 06:41:44 10° SSW daylight
01 Mar - 20:37:56 10° SSW 20:42:19 53° SE 20:46:48 10° ENE night (unlit)
01 Mar - 22:20:12 10° W 22:24:04 26° NNW 22:27:58 10° NNE night (unlit)
02 Mar - 00:06:13 10° NNW 00:06:56 10° N 00:07:39 10° N night (unlit)
02 Mar - 01:49:05 10° N 01:50:19 11° NNE 01:51:34 10° NNE visible
02 Mar - 03:29:00 10° NNW 03:33:07 29° NNE 03:37:13 10° E visible
02 Mar - 05:10:18 10° WNW 05:14:48 46° SW 05:19:15 10° SSE daylight
02 Mar - 19:15:03 10° SSE 19:17:33 15° SE 19:20:04 10° E night (unlit)
02 Mar - 20:54:08 10° SW 20:58:38 71° NW 21:03:14 10° NE night (unlit)
02 Mar - 22:37:51 10° WNW 22:40:49 17° NNW 22:43:50 10° NNE night (unlit)
03 Mar - 02:04:39 10° NNW 02:07:18 15° NNE 02:09:57 10° NE visible
03 Mar - 03:45:04 10° NW 03:49:40 54° NE 03:54:15 10° ESE visible
03 Mar - 05:27:24 10° W 05:30:57 21° SW 05:34:28 10° S daylight
03 Mar - 19:29:37 10° SSW 19:33:38 33° SE 19:37:43 10° ENE night (unlit)
03 Mar - 21:10:56 10° W 21:15:07 36° NNW 21:19:23 10° NE night (unlit)
03 Mar - 22:56:00 10° NW 22:57:45 12° NNW 22:59:30 10° N night (unlit)
04 Mar - 02:20:27 10° NNW 02:24:07 22° NNE 02:27:46 10° ENE visible
04 Mar - 04:01:22 10° NW 04:06:03 74° SW 04:10:42 10° SE daylight
04 Mar - 19:45:23 10° SW 19:49:51 74° SE 19:54:25 10° NE night (unlit)
04 Mar - 21:28:16 10° WNW 21:31:46 21° NNW 21:35:20 10° NNE night (unlit)
05 Mar - 00:56:17 10° N 00:58:09 12° NNE 01:00:00 10° NE visible
05 Mar - 02:36:25 10° NW 02:40:46 37° NNE 02:45:07 10° ESE visible
05 Mar - 04:18:03 10° WNW 04:22:16 34° SW 04:26:28 10° SSE daylight
05 Mar - 18:21:42 10° S 18:25:00 20° SE 18:28:20 10° E night (unlit)
05 Mar - 20:01:50 10° WSW 20:06:14 53° NW 20:10:43 10° NE night (unlit)
05 Mar - 21:46:07 10° NW 21:48:36 14° NNW 21:51:06 10° NNE night (unlit)
06 Mar - 01:11:58 10° NNW 01:15:03 17° NNE 01:18:08 10° ENE visible
06 Mar - 02:52:33 10° NW 02:57:14 72° NE 03:01:55 10° SE visible
06 Mar - 04:35:38 10° W 04:38:22 15° SW 04:41:06 10° SSW daylight
06 Mar - 18:36:52 10° SSW 18:41:08 45° SE 18:45:28 10° ENE night (unlit)
06 Mar - 20:18:52 10° W 20:22:46 28° NNW 20:26:46 10° NNE night (unlit)
06 Mar - 22:04:38 10° NNW 22:05:34 11° N 22:06:31 10° N night (unlit)
06 Mar - 23:48:14 10° N 23:48:57 10° N 23:49:40 10° NNE night (unlit)
07 Mar - 01:27:50 10° NNW 01:31:48 27° NNE 01:35:46 10° E visible
07 Mar - 03:08:59 10° WNW 03:13:33 54° SW 03:18:07 10° SSE visible
07 Mar - 17:14:35 10° SSE 17:16:24 12° SE 17:18:13 10° ESE visible
07 Mar - 18:52:56 10° SW 18:57:24 81° NW 19:01:58 10° NE visible
07 Mar - 20:36:25 10° WNW 20:39:30 18° NNW 20:42:38 10° NNE night (unlit)
08 Mar - 00:03:34 10° NNW 00:05:56 14° NNE 00:08:19 10° NE night (unlit)
08 Mar - 01:43:51 10° NW 01:48:22 47° NE 01:52:54 10° ESE visible
08 Mar - 03:25:56 10° WNW 03:29:44 25° SW 03:33:31 10° S visible
08 Mar - 17:28:40 10° S 17:32:27 28° SE 17:36:18 10° ENE visible
08 Mar - 19:09:38 10° WSW 19:13:51 40° NW 19:18:08 10° NE visible
08 Mar - 20:54:30 10° NW 20:56:24 12° NNW 20:58:18 10° N night (unlit)
